Flag for U.S.A. Weather past 2 weeks in San Luis Obispo, California, U.S.A.

Now
49 °F

Clear.


Feels Like: 49 °F
Forecast: 43 / 75 °F
Wind: No wind

Location: San Luis Obispo County-Mc Chesney Field

Current Time: Mar 5, 2015 at 11:42:34 PM

Latest Report: Mar 5, 2015 at 10:56 PM


Visibility: 10 mi

Pressure: 30.22 "Hg

Humidity: 69%

Dew point: 39 °F

Location of San Luis ObispoLocation

Historic Weather in San Luis Obispo — Graph

°F

San Luis Obispo temperature yesterday

Maximum temperature yesterday: 70 °F (at 11:56 AM)
Minimum temperature yesterday: 43 °F (at 2:56 AM)
Average temperature yesterday: 55 °F

Past Weeks' High & Low Weather Summary

 TemperatureHumidityPressure
High75 °F (Mar 5, 1:56 PM)100% (Feb 20, 4:56 AM)30.34 "Hg (Feb 20, 4:56 AM)
Low38 °F (Mar 3, 4:56 AM)25% (Mar 5, 12:56 PM)29.78 "Hg (Feb 27, 5:57 PM)
Average53 °F78%30.00 "Hg
* Reported Feb 18 9:56 PM — Mar 5 9:56 PM, San Luis Obispo, Weather by CustomWeather, © 2015

Note: Actual official high and low records may vary slightly from our data, if they occured in-between our weather recording intervals... More about our weather records

Advertising

San Luis Obispo weather history for previous 24 hours

 ConditionsComfort  
Time TempWeatherWind HumidityBarometerVisibility
9:56 PM
Thu, Mar 5
51 °FClear.No wind63%30.23 "Hg10 mi
8:56 PM51 °FClear.3 mph66%30.23 "Hg10 mi
7:56 PM54 °FClear.No wind57%30.22 "Hg10 mi
6:56 PM59 °FClear.3 mph46%30.22 "Hg10 mi
5:56 PM62 °FSunny.10 mph44%30.21 "Hg10 mi
4:56 PM65 °FSunny.12 mph45%30.21 "Hg10 mi
3:56 PM68 °FSunny.13 mph49%30.21 "Hg10 mi
2:56 PM73 °FSunny.17 mph25%30.21 "Hg10 mi
1:56 PM75 °FSunny.16 mph27%30.21 "Hg10 mi
12:56 PM74 °FSunny.No wind25%30.23 "Hg10 mi
11:56 AM73 °FSunny.5 mph27%30.26 "Hg10 mi
10:56 AM70 °FSunny.No wind31%30.28 "Hg10 mi
9:56 AM64 °FSunny.No wind38%30.29 "Hg10 mi
8:56 AM56 °FSunny.No wind65%30.29 "Hg10 mi
7:56 AM48 °FSunny.No wind77%30.28 "Hg10 mi
6:56 AM41 °FSunny.No wind82%30.25 "Hg10 mi
5:56 AM41 °FClear.3 mph82%30.24 "Hg10 mi
4:56 AM41 °FClear.No wind86%30.22 "Hg10 mi
3:56 AM41 °FClear.N/A89%30.20 "Hg10 mi
2:56 AM43 °FClear.N/A82%30.19 "Hg10 mi
1:56 AM43 °FClear.No wind82%30.19 "Hg10 mi
12:56 AM44 °FClear.No wind85%30.19 "Hg10 mi
11:56 PM
Wed, Mar 4
45 °FClear.3 mph86%30.19 "Hg10 mi
Weather by CustomWeather, © 2015

See weather overviewHow to use our weather pages